[[{"header":{"parameterUnit":"m.s-1","parameterCategory":2,"la1":30.2991,"la2":30.254,"lo1":-89.0895,"lo2":-89.0444,"dx":0.0017,"dy":0.0017,"nx":28,"ny":28,"refTime":"2023-01-21T15:00:00:Z","depth":"0","parameterNumber":2,"parameterNumberName":"U-component_of_CURRENTS"},"data":[0,0,0,0,0,0,0,0,0,0,0,0,0,0,0,0,0,0,0,0,0,0,0,0,0,0,0,0,0,0,0,0,0,0,0,0,0,0,0,0,0,0,0,0,0,0,0,0,0,0,0,0,0,0,0,0,0,0,-0.3052,-0.3053,0,-0.3091,-0.3092,-0.3092,-0.3065,-0.3064,-0.3063,-0.3062,-0.3024,-0.3024,-0.3024,0,0,0,0,0,0,0,0,0,0,0,0,0,-0.2943,-0.2945,-0.3052,-0.3053,-0.3054,-0.3091,-0.3092,-0.3092,-0.3065,-0.3064,-0.3063,-0.3062,-0.3024,-0.3024,-0.3024,0,0,0,0,0,0,0,0,0,0,0,0,0,-0.2984,-0.2946,-0.3052,-0.3047,-0.3047,-0.3091,-0.3092,-0.3092,-0.3065,-0.3064,-0.3062,-0.3061,-0.3024,-0.3024,-0.3023,-0.305,0,0,-0.3023,-0.3023,0,0,0,0,0,0,0,0,-0.2982,-0.2988,-0.3047,-0.3048,-0.3048,-0.3075,-0.3039,-0.3075,-0.3065,-0.3055,-0.3062,-0.306,-0.3037,-0.3035,-0.3042,-0.3048,-0.3046,-0.3023,-0.3023,-0.3022,-0.3022,0,0,0,0,0,0,0,-0.2979,-0.2986,-0.3064,-0.3048,-0.3049,-0.304,-0.3044,-0.3046,-0.3049,-0.3056,-0.3055,-0.3065,-0.3036,-0.3043,-0.3041,-0.3046,-0.3023,-0.3023,-0.3022,-0.3022,-0.3064,-0.3065,0,0,0,0,0,0,-0.2984,-0.2984,-0.3063,-0.3066,-0.3015,-0.3043,-0.3047,-0.3065,-0.3051,-0.3049,-0.3066,-0.3063,-0.3044,-0.3041,-0.304,-0.3074,-0.3022,-0.3022,-0.3022,-0.3063,-0.3064,-0.3065,0,0,0,0,0,0,-0.2981,-0.2991,-0.3062,-0.3027,-0.3036,-0.3047,-0.3066,-0.3066,-0.3068,-0.306,-0.3055,-0.3067,-0.3043,-0.304,-0.3051,-0.3071,-0.3022,-0.3022,-0.3061,-0.3063,-0.3065,-0.3139,0,0,0,0,0,0,-0.2978,-0.299,-0.2998,-0.3028,-0.3039,-0.3095,-0.3068,-0.3068,-0.3078,-0.3075,-0.306,-0.3055,-0.3041,-0.3051,-0.305,-0.307,-0.3022,-0.306,-0.3062,-0.3064,-0.3135,-0.3143,-0.315,0,0,0,0,0,-0.2974,-0.2997,-0.2999,-0.3008,-0.3052,-0.3097,-0.3101,-0.3101,-0.308,-0.3094,-0.3083,-0.3055,-0.3065,-0.3053,-0.3051,-0.3071,-0.3058,-0.3061,-0.3064,-0.3132,-0.3142,-0.315,0,0,0,0,0,0,-0.295,-0.2998,-0.3,-0.3034,-0.3066,-0.3093,-0.3104,-0.3104,-0.3108,-0.3098,-0.3077,-0.3073,-0.3092,-0.3073,-0.306,-0.309,-0.3055,-0.3058,-0.3107,-0.3116,-0.3124,-0.3134,-0.3022,0,0,0,0,0,-0.2952,-0.2978,-0.3023,-0.3046,-0.3065,-0.3083,-0.3097,-0.3104,-0.3116,-0.3115,-0.3106,-0.3097,-0.3105,-0.3103,-0.3106,-0.3123,-0.3104,-0.3134,-0.3141,-0.3148,-0.3155,-0.3149,-0.3157,-0.3075,-0.3075,-0.3075,0,0,-0.2945,-0.2976,-0.2988,-0.3043,-0.3061,-0.3105,-0.3087,-0.3118,-0.3149,-0.3111,-0.3135,-0.3127,-0.3118,-0.3142,-0.3147,-0.3126,-0.3163,-0.3151,-0.3157,-0.3161,-0.3153,-0.3161,-0.3168,-0.3077,-0.3076,-0.3076,0,0,-0.2955,-0.2977,-0.3007,-0.3045,-0.309,-0.3114,-0.3125,-0.316,-0.3168,-0.3199,-0.3181,-0.3189,-0.3191,-0.3199,-0.32,-0.3251,-0.3207,-0.3242,-0.3285,-0.3279,-0.3286,-0.3292,-0.3283,-0.3287,-0.3241,-0.3241,-0.3241,0,-0.294,-0.2991,-0.3021,-0.3068,-0.3099,-0.3121,-0.3164,-0.3191,-0.3222,-0.3233,-0.3212,-0.3231,-0.3223,-0.3259,-0.3278,-0.327,-0.3251,-0.3251,-0.3289,-0.3294,-0.3299,-0.3288,-0.3291,-0.3245,-0.3244,-0.3244,-0.3244,0,-0.298,-0.3023,-0.3045,-0.3113,-0.3153,-0.3193,-0.3246,-0.3274,-0.3279,-0.3298,-0.3326,-0.3323,-0.3326,-0.3332,-0.3322,-0.3355,-0.3328,-0.3303,-0.3266,-0.3312,-0.3297,-0.33,-0.3251,-0.3249,-0.3248,-0.3247,0,0,-0.2929,-0.3049,-0.3052,-0.3095,-0.3179,-0.3215,-0.328,-0.3339,-0.3372,-0.3389,-0.3422,-0.3442,-0.3423,-0.3424,-0.341,-0.3414,-0.3436,-0.3373,-0.3371,-0.3364,-0.3417,-0.3339,-0.3333,-0.3409,-0.341,-0.3411,-0.3395,0,-0.2942,-0.3032,-0.3092,-0.3172,-0.3222,-0.3279,-0.3339,-0.3394,-0.3428,-0.3469,-0.3471,-0.3492,-0.3463,-0.346,-0.3464,-0.3447,-0.3444,-0.3442,-0.3373,-0.3371,-0.3296,-0.3335,-0.3237,-0.3209,-0.3397,-0.3398,-0.3398,0,-0.295,-0.3015,-0.3094,-0.3208,-0.3233,-0.3279,-0.3366,-0.3424,-0.3497,-0.3519,-0.3541,-0.3546,-0.3567,-0.3526,-0.3514,-0.3509,-0.3469,-0.345,-0.3448,-0.335,-0.3298,-0.3193,-0.3206,-0.3175,-0.3401,-0.3401,-0.3401,0,-0.2888,-0.301,-0.3069,-0.3108,-0.3242,-0.3272,-0.3326,-0.3415,-0.3468,-0.3536,-0.3566,-0.3593,-0.3585,-0.3567,-0.3519,-0.3517,-0.3492,-0.3479,-0.3374,-0.3368,-0.3259,-0.3241,-0.3232,-0.3462,-0.3462,-0.3462,-0.3463,0,-0.2875,-0.292,-0.3037,-0.3071,-0.3132,-0.3229,-0.3294,-0.3358,-0.3452,-0.3498,-0.3563,-0.359,-0.359,-0.3577,-0.3541,-0.3457,-0.3498,-0.339,-0.3361,-0.3282,-0.3267,-0.3212,-0.3231,-0.3462,-0.3462,-0.3462,-0.3462,0,-0.2792,-0.2881,-0.2948,-0.3069,-0.3106,-0.3132,-0.3259,-0.3306,-0.3404,-0.3465,-0.3483,-0.3574,-0.3555,-0.3547,-0.351,-0.3456,-0.3347,-0.3358,-0.3263,-0.3223,-0.3102,-0.3129,-0.3072,-0.2979,-0.3263,-0.3261,-0.3259,0,-0.2758,-0.2784,-0.2905,-0.2934,-0.2979,-0.305,-0.3102,-0.3242,-0.3297,-0.3438,-0.345,-0.3489,-0.3482,-0.3427,-0.3354,-0.328,-0.3253,-0.314,-0.3123,-0.3088,-0.3098,-0.3097,-0.3023,-0.3015,-0.3011,-0.3009,-0.3006,0,-0.2668,-0.2702,-0.2755,-0.2813,-0.2864,-0.2935,-0.3013,-0.3064,-0.3212,-0.328,-0.3342,-0.336,-0.3342,-0.3245,-0.3158,-0.3096,-0.3071,-0.3077,-0.3066,-0.2928,-0.2903,-0.28,-0.304,-0.2981,-0.2983,-0.2985,-0.2986,-0.2987,-0.2565,-0.2568,-0.2623,-0.2664,-0.2727,-0.2761,-0.2759,-0.2871,-0.2935,-0.2997,-0.3134,-0.3136,-0.3145,-0.3027,-0.2965,-0.2835,-0.2869,-0.2763,-0.2807,-0.2816,-0.2701,-0.2882,-0.2771,-0.2772,-0.2773,-0.2774,-0.2775,0,-0.242,-0.244,-0.2471,-0.2509,-0.2499,-0.2587,-0.2655,-0.2625,-0.2631,-0.2769,-0.2807,-0.2881,-0.2802,-0.2817,-0.2734,-0.2614,-0.2536,-0.2542,-0.2534,-0.2474,-0.265,-0.261,-0.2427,-0.2427,-0.2427,-0.2427,-0.2427,-0.2427,-0.2344,-0.2312,-0.2331,-0.2256,-0.2277,-0.22,-0.2193,-0.219,-0.2252,-0.2301,-0.2408,-0.2564,-0.2598,-0.2798,-0.2662,-0.2532,-0.2447,-0.2366,-0.2362,-0.2523,-0.2548,-0.2571,-0.2537,-0.2342,-0.2342,-0.2095,-0.2094,-0.2093]},{"header":{"parameterUnit":"m.s-1","parameterCategory":2,"la1":30.2991,"la2":30.254,"lo1":-89.0895,"lo2":-89.0444,"dx":0.0017,"dy":0.0017,"nx":28,"ny":28,"refTime":"2023-01-21T15:00:00:Z","depth":"0","parameterNumber":3,"parameterNumberName":"V-component_of_CURRENTS"},"data":[0,0,0,0,0,0,0,0,0,0,0,0,0,0,0,0,0,0,0,0,0,0,0,0,0,0,0,0,0,0,0,0,0,0,0,0,0,0,0,0,0,0,0,0,0,0,0,0,0,0,0,0,0,0,0,0,0,0,-0.0311,-0.031,0,-0.0191,-0.019,-0.0188,-0.0111,-0.0111,-0.0111,-0.011,0.0038,0.0042,0.0045,0,0,0,0,0,0,0,0,0,0,0,0,0,-0.0397,-0.0396,-0.0311,-0.031,-0.0309,-0.0192,-0.019,-0.0188,-0.0111,-0.0111,-0.0111,-0.011,0.0037,0.0041,0.0046,0,0,0,0,0,0,0,0,0,0,0,0,0,-0.0325,-0.0396,-0.0311,-0.0258,-0.0253,-0.0192,-0.019,-0.0187,-0.0111,-0.0111,-0.0111,-0.011,0.0035,0.0041,0.0046,0.0074,0,0,0.0063,0.0066,0,0,0,0,0,0,0,0,-0.0329,-0.0321,-0.0267,-0.0262,-0.0255,-0.0168,-0.0166,-0.0099,-0.0111,-0.0162,-0.011,-0.011,-0.003,-0.0019,0.0006,0.0081,0.0088,0.0064,0.0067,0.007,0.0071,0,0,0,0,0,0,0,-0.0334,-0.0326,-0.0261,-0.0266,-0.0259,-0.0214,-0.0204,-0.0152,-0.0097,-0.0158,-0.0152,-0.0143,-0.0026,0.0,0.001,0.009,0.0064,0.0069,0.0072,0.0074,0.0216,0.0216,0,0,0,0,0,0,-0.0359,-0.0331,-0.0265,-0.0258,-0.0295,-0.0214,-0.0202,-0.0194,-0.0098,-0.0084,-0.0144,-0.014,-0.0009,0.0003,0.0016,0.0056,0.007,0.0075,0.0078,0.0215,0.0216,0.0216,0,0,0,0,0,0,-0.0361,-0.0354,-0.027,-0.0293,-0.028,-0.0214,-0.0205,-0.0192,-0.0167,-0.0088,-0.0073,-0.0133,-0.0009,0.0008,0.006,0.0062,0.0078,0.0083,0.0215,0.0216,0.0216,0.0136,0,0,0,0,0,0,-0.0364,-0.0356,-0.0361,-0.0295,-0.028,-0.0246,-0.0205,-0.019,-0.0164,-0.0158,-0.0074,-0.006,-0.0007,0.0051,0.0065,0.007,0.0087,0.0214,0.0215,0.0216,0.0138,0.0134,0.013,0,0,0,0,0,-0.0367,-0.038,-0.0362,-0.0354,-0.0288,-0.0247,-0.0235,-0.0184,-0.0164,-0.0159,-0.0099,-0.0062,0.0066,0.0055,0.0072,0.0079,0.0214,0.0215,0.0216,0.014,0.0134,0.013,0,0,0,0,0,0,-0.0419,-0.0371,-0.035,-0.0347,-0.0306,-0.0235,-0.0228,-0.0192,-0.014,-0.0135,-0.0058,-0.004,0.0007,0.0055,0.0041,0.0123,0.0147,0.0151,0.0083,0.0079,0.0075,0.0057,0.0092,0,0,0,0,0,-0.0435,-0.0432,-0.0375,-0.0374,-0.0358,-0.0295,-0.0273,-0.0238,-0.0183,-0.016,-0.01,-0.0034,0.0025,0.0058,0.0114,0.0157,0.021,0.0174,0.017,0.0166,0.0164,0.0246,0.0249,0.0219,0.0219,0.0219,0,0,-0.0455,-0.043,-0.0427,-0.0386,-0.0349,-0.0333,-0.028,-0.0255,-0.0235,-0.0152,-0.011,-0.005,0.0032,0.0082,0.0107,0.0121,0.0202,0.0167,0.0163,0.0164,0.0247,0.025,0.0253,0.022,0.022,0.0219,0,0,-0.0499,-0.0471,-0.0484,-0.0455,-0.0413,-0.0369,-0.0368,-0.0302,-0.0266,-0.0221,-0.0153,-0.0092,-0.0009,0.0058,0.01,0.0109,0.0174,0.0125,0.0095,0.0174,0.0177,0.018,0.0242,0.0252,0.0127,0.0127,0.0127,0,-0.0528,-0.0532,-0.0482,-0.0484,-0.0467,-0.0393,-0.0398,-0.0348,-0.0272,-0.0239,-0.0222,-0.0079,-0.0018,0.0064,0.0066,0.0099,0.0148,0.0103,0.0167,0.0172,0.0177,0.024,0.0251,0.0123,0.0124,0.0124,0.0125,0,-0.0577,-0.0577,-0.0583,-0.0559,-0.0532,-0.0526,-0.0455,-0.0419,-0.037,-0.0311,-0.0229,-0.0137,-0.0049,-0.0019,0.0025,0.0094,0.0118,0.0147,0.0173,0.0174,0.0241,0.0255,0.0118,0.0119,0.012,0.0121,0,0,-0.0644,-0.0625,-0.0624,-0.063,-0.0573,-0.0558,-0.052,-0.0458,-0.0428,-0.0343,-0.0289,-0.0183,-0.0124,-0.0071,0.0004,0.0072,0.0142,0.0114,0.012,0.0163,0.0307,0.0352,0.0371,0.018,0.0182,0.0184,0.0336,0,-0.0698,-0.0737,-0.0695,-0.0712,-0.0725,-0.0641,-0.0612,-0.0542,-0.0467,-0.0394,-0.0274,-0.0201,-0.0143,-0.0103,-0.0022,0.0109,0.0175,0.0097,0.031,0.0316,0.0347,0.0387,0.0436,0.0579,0.035,0.0352,0.0354,0,-0.0754,-0.0776,-0.0817,-0.0797,-0.0791,-0.0779,-0.0713,-0.0675,-0.0546,-0.0485,-0.0377,-0.0276,-0.0144,-0.0109,0.0113,0.0061,0.0169,0.0263,0.0272,0.0352,0.0387,0.0545,0.0612,0.0797,0.0375,0.0373,0.0372,0,-0.084,-0.085,-0.0892,-0.0887,-0.0853,-0.0842,-0.081,-0.0708,-0.0671,-0.0538,-0.0486,-0.0315,-0.0225,-0.0058,0.0148,0.0132,0.0388,0.0396,0.0536,0.054,0.0644,0.0653,0.0907,0.0534,0.0534,0.0533,0.0533,0,-0.0915,-0.0941,-0.094,-0.0962,-0.0995,-0.0933,-0.0929,-0.0863,-0.0764,-0.0715,-0.0544,-0.0454,-0.0211,-0.0026,0.0146,0.0397,0.0395,0.0544,0.0592,0.0616,0.0621,0.0837,0.0906,0.0539,0.0538,0.0537,0.0536,0,-0.0996,-0.0996,-0.1045,-0.1041,-0.1041,-0.1065,-0.1023,-0.101,-0.0901,-0.0827,-0.0786,-0.0548,-0.0297,-0.0044,0.0243,0.0394,0.0752,0.0701,0.0706,0.0752,0.1038,0.1098,0.1396,0.1508,0.0884,0.0886,0.0888,0,-0.1042,-0.108,-0.1121,-0.1159,-0.116,-0.1181,-0.1187,-0.1097,-0.1064,-0.0876,-0.0834,-0.058,-0.037,0.0088,0.0402,0.0733,0.0865,0.0943,0.0921,0.1081,0.1185,0.1224,0.1298,0.1028,0.1031,0.1033,0.1035,0,-0.1124,-0.1137,-0.1182,-0.1271,-0.1303,-0.1333,-0.1321,-0.1312,-0.1186,-0.1085,-0.0891,-0.0707,-0.0242,0.0191,0.0615,0.0803,0.1096,0.0998,0.1185,0.1342,0.1384,0.1504,0.0882,0.1056,0.1054,0.1052,0.1051,0.105,-0.1174,-0.1237,-0.13,-0.1375,-0.1422,-0.1457,-0.1467,-0.1419,-0.1351,-0.1166,-0.096,-0.064,0.0005,0.0636,0.087,0.1347,0.128,0.1466,0.1533,0.1562,0.1663,0.1071,0.1279,0.1279,0.1278,0.1278,0.1277,0,-0.1238,-0.1306,-0.1395,-0.1478,-0.1541,-0.1537,-0.153,-0.15,-0.1415,-0.1198,-0.097,-0.0256,0.0377,0.0948,0.1651,0.1884,0.1931,0.1981,0.2065,0.2119,0.1633,0.1632,0.1899,0.1899,0.1899,0.1899,0.1898,0.1898,-0.1275,-0.1379,-0.143,-0.1553,-0.1607,-0.1653,-0.1645,-0.1568,-0.1407,-0.1034,-0.0641,-0.0293,0.0553,0.1749,0.2388,0.2414,0.2613,0.257,0.268,0.2351,0.2307,0.2266,0.2285,0.2684,0.2685,0.3153,0.3158,0.3161]}],[{"header":{"parameterUnit":"m.s-1","parameterCategory":2,"la1":30.2991,"la2":30.254,"lo1":-89.0895,"lo2":-89.0444,"dx":0.0017,"dy":0.0017,"nx":28,"ny":28,"refTime":"2023-01-21T15:00:00:Z","depth":"2","parameterNumber":2,"parameterNumberName":"U-component_of_CURRENTS"},"data":[0,0,0,0,0,0,0,0,0,0,0,0,0,0,0,0,0,0,0,0,0,0,0,0,0,0,0,0,0,0,0,0,0,0,0,0,0,0,0,0,0,0,0,0,0,0,0,0,0,0,0,0,0,0,0,0,0,0,-0.2821,-0.2822,0,-0.2858,-0.2859,-0.2859,-0.2838,-0.2837,-0.2836,-0.2836,-0.2806,-0.2805,-0.2805,0,0,0,0,0,0,0,0,0,0,0,0,0,-0.2723,-0.2725,-0.2821,-0.2822,-0.2823,-0.2858,-0.2859,-0.2859,-0.2838,-0.2837,-0.2836,-0.2835,-0.2806,-0.2806,-0.2805,0,0,0,0,0,0,0,0,0,0,0,0,0,-0.276,-0.2725,-0.2821,-0.2819,-0.2819,-0.2858,-0.2859,-0.2859,-0.2838,-0.2837,-0.2836,-0.2835,-0.2806,-0.2806,-0.2805,-0.2827,0,0,-0.2805,-0.2805,0,0,0,0,0,0,0,0,-0.2758,-0.2764,-0.2819,-0.2819,-0.282,-0.2845,-0.2813,-0.2846,-0.2838,-0.2828,-0.2836,-0.2834,-0.2816,-0.2815,-0.282,-0.2825,-0.2824,-0.2805,-0.2805,-0.2805,-0.2805,0,0,0,0,0,0,0,-0.2756,-0.2762,-0.2833,-0.282,-0.282,-0.2813,-0.2817,-0.2819,-0.2824,-0.2828,-0.2828,-0.2837,-0.2815,-0.2821,-0.2819,-0.2823,-0.2805,-0.2805,-0.2805,-0.2805,-0.2847,-0.2848,0,0,0,0,0,0,-0.276,-0.276,-0.2832,-0.2834,-0.2789,-0.2816,-0.282,-0.2835,-0.2825,-0.2824,-0.2838,-0.2836,-0.2821,-0.282,-0.2818,-0.2856,-0.2805,-0.2805,-0.2804,-0.2845,-0.2847,-0.2848,0,0,0,0,0,0,-0.2758,-0.2766,-0.283,-0.28,-0.2808,-0.282,-0.2836,-0.2837,-0.2842,-0.2834,-0.283,-0.2844,-0.282,-0.2818,-0.2832,-0.2854,-0.2804,-0.2804,-0.2844,-0.2846,-0.2848,-0.2923,0,0,0,0,0,0,-0.2755,-0.2765,-0.2775,-0.28,-0.281,-0.2863,-0.2838,-0.2839,-0.2852,-0.2849,-0.2838,-0.2834,-0.2819,-0.2832,-0.2831,-0.2853,-0.2804,-0.2843,-0.2845,-0.2847,-0.2919,-0.2927,-0.2934,0,0,0,0,0,-0.2751,-0.2773,-0.2775,-0.2784,-0.2823,-0.2864,-0.2869,-0.287,-0.2853,-0.2867,-0.286,-0.2834,-0.2845,-0.2834,-0.2832,-0.2854,-0.2841,-0.2844,-0.2847,-0.2916,-0.2926,-0.2934,0,0,0,0,0,0,-0.2732,-0.2774,-0.2776,-0.2808,-0.2838,-0.2862,-0.2874,-0.2876,-0.2882,-0.2874,-0.2854,-0.2852,-0.2872,-0.2854,-0.2841,-0.2873,-0.2837,-0.284,-0.289,-0.2899,-0.2907,-0.2916,-0.2804,0,0,0,0,0,-0.2735,-0.2759,-0.2799,-0.2822,-0.2839,-0.2856,-0.287,-0.2878,-0.289,-0.2891,-0.2884,-0.2877,-0.2885,-0.2884,-0.2887,-0.2905,-0.2886,-0.2917,-0.2924,-0.2931,-0.2938,-0.2932,-0.294,-0.2857,-0.2857,-0.2857,0,0,-0.273,-0.2758,-0.277,-0.2819,-0.2837,-0.2878,-0.2861,-0.2893,-0.2922,-0.2887,-0.2914,-0.2907,-0.2897,-0.2922,-0.2928,-0.2907,-0.2946,-0.2934,-0.294,-0.2943,-0.2936,-0.2944,-0.2951,-0.2859,-0.2859,-0.2859,0,0,-0.2742,-0.2764,-0.2791,-0.2826,-0.2869,-0.289,-0.2902,-0.2935,-0.2945,-0.2977,-0.296,-0.2971,-0.2974,-0.298,-0.298,-0.3031,-0.299,-0.3024,-0.3067,-0.3062,-0.3069,-0.3075,-0.3067,-0.3071,-0.3024,-0.3024,-0.3024,0,-0.2732,-0.2777,-0.2805,-0.2848,-0.2877,-0.2899,-0.2939,-0.2966,-0.2997,-0.3008,-0.2992,-0.3012,-0.3005,-0.3038,-0.3058,-0.305,-0.3033,-0.3034,-0.3073,-0.3078,-0.3082,-0.3072,-0.3076,-0.3028,-0.3028,-0.3027,-0.3027,0,-0.2769,-0.281,-0.2831,-0.2893,-0.2931,-0.2969,-0.3017,-0.3047,-0.3055,-0.3073,-0.3104,-0.3101,-0.3106,-0.3112,-0.3102,-0.3136,-0.311,-0.3086,-0.3049,-0.3095,-0.3081,-0.3084,-0.3034,-0.3032,-0.3031,-0.303,0,0,-0.2727,-0.2835,-0.2839,-0.2878,-0.2957,-0.2989,-0.3052,-0.3107,-0.3139,-0.316,-0.3193,-0.3214,-0.3199,-0.32,-0.3188,-0.3192,-0.3217,-0.3156,-0.3154,-0.3148,-0.3202,-0.3124,-0.3118,-0.3194,-0.3194,-0.3195,-0.3182,0,-0.274,-0.2821,-0.2877,-0.295,-0.2996,-0.305,-0.3106,-0.3159,-0.3193,-0.3234,-0.3239,-0.3262,-0.3237,-0.3238,-0.3243,-0.3227,-0.3226,-0.3222,-0.3158,-0.3156,-0.3081,-0.312,-0.2886,-0.2848,-0.3184,-0.3184,-0.3184,0,-0.2749,-0.2806,-0.288,-0.2983,-0.3006,-0.305,-0.3132,-0.3188,-0.3258,-0.3282,-0.3307,-0.3314,-0.3338,-0.3301,-0.3292,-0.3288,-0.3252,-0.3234,-0.3232,-0.3133,-0.3082,-0.2856,-0.284,-0.3188,-0.3187,-0.3187,-0.3187,0,-0.2692,-0.2803,-0.2857,-0.2894,-0.3015,-0.3046,-0.3098,-0.3182,-0.3232,-0.3301,-0.3332,-0.3361,-0.3358,-0.3342,-0.33,-0.3298,-0.3275,-0.3262,-0.316,-0.3154,-0.2929,-0.2901,-0.3248,-0.3248,-0.3248,-0.3248,-0.3248,0,-0.268,-0.2721,-0.283,-0.286,-0.2918,-0.3008,-0.307,-0.3132,-0.3223,-0.3265,-0.3332,-0.3357,-0.3364,-0.3354,-0.3321,-0.3241,-0.3282,-0.3175,-0.3147,-0.2949,-0.2925,-0.3195,-0.3189,-0.3248,-0.3248,-0.3248,-0.3248,0,-0.2604,-0.2686,-0.2746,-0.2858,-0.2894,-0.292,-0.3039,-0.3083,-0.3179,-0.3237,-0.3257,-0.3347,-0.3331,-0.3326,-0.3294,-0.3241,-0.3193,-0.3146,-0.2915,-0.2861,-0.3076,-0.3074,-0.3056,-0.3053,-0.3051,-0.3049,-0.3047,0,-0.2573,-0.2596,-0.2707,-0.2734,-0.2778,-0.2845,-0.2892,-0.3025,-0.3075,-0.321,-0.322,-0.3263,-0.3252,-0.3202,-0.3117,-0.3043,-0.3115,-0.2788,-0.2751,-0.3083,-0.3058,-0.306,-0.3061,-0.2483,-0.2477,-0.2472,-0.2468,0,-0.2487,-0.252,-0.2566,-0.2621,-0.2669,-0.273,-0.2803,-0.2848,-0.2987,-0.3049,-0.3107,-0.3121,-0.3092,-0.2918,-0.2832,-0.2756,-0.2792,-0.2685,-0.307,-0.2578,-0.2544,-0.2519,-0.2539,-0.2423,-0.2428,-0.2431,-0.2433,-0.2435,-0.2392,-0.2392,-0.2442,-0.2479,-0.2537,-0.2561,-0.2553,-0.265,-0.2703,-0.2735,-0.2874,-0.2812,-0.2805,-0.2565,-0.2448,-0.2351,-0.2536,-0.242,-0.2434,-0.2455,-0.24,-0.2365,-0.22,-0.2203,-0.2206,-0.2208,-0.221,0,-0.2253,-0.227,-0.2297,-0.2327,-0.2312,-0.2398,-0.2451,-0.2399,-0.2388,-0.2461,-0.2476,-0.225,-0.2162,-0.216,-0.195,-0.1925,-0.1894,-0.1842,-0.1797,-0.1842,-0.1883,-0.1799,-0.1439,-0.1437,-0.1435,-0.1433,0,0,-0.218,-0.2144,-0.2157,-0.2078,-0.2098,-0.2011,-0.1997,-0.1952,-0.1956,-0.1873,-0.1854,-0.2029,-0.2098,-0.1767,-0.1694,-0.1532,-0.1666,-0.1457,-0.2074,-0.2064,-0.2101,-0.2212,-0.2134,0,0,0,0,0]},{"header":{"parameterUnit":"m.s-1","parameterCategory":2,"la1":30.2991,"la2":30.254,"lo1":-89.0895,"lo2":-89.0444,"dx":0.0017,"dy":0.0017,"nx":28,"ny":28,"refTime":"2023-01-21T15:00:00:Z","depth":"2","parameterNumber":3,"parameterNumberName":"V-component_of_CURRENTS"},"data":[0,0,0,0,0,0,0,0,0,0,0,0,0,0,0,0,0,0,0,0,0,0,0,0,0,0,0,0,0,0,0,0,0,0,0,0,0,0,0,0,0,0,0,0,0,0,0,0,0,0,0,0,0,0,0,0,0,0,-0.0274,-0.0273,0,-0.0159,-0.0158,-0.0156,-0.0084,-0.0084,-0.0084,-0.0083,0.0058,0.0062,0.0065,0,0,0,0,0,0,0,0,0,0,0,0,0,-0.0356,-0.0355,-0.0274,-0.0273,-0.0272,-0.016,-0.0158,-0.0156,-0.0084,-0.0084,-0.0083,-0.0083,0.0057,0.0061,0.0066,0,0,0,0,0,0,0,0,0,0,0,0,0,-0.0287,-0.0355,-0.0274,-0.0224,-0.0219,-0.016,-0.0158,-0.0156,-0.0084,-0.0084,-0.0083,-0.0083,0.0056,0.0061,0.0066,0.0094,0,0,0.0083,0.0085,0,0,0,0,0,0,0,0,-0.0291,-0.0283,-0.0233,-0.0227,-0.0221,-0.0138,-0.0135,-0.0072,-0.0084,-0.0132,-0.0083,-0.0083,-0.0007,0.0004,0.0028,0.0101,0.0107,0.0083,0.0087,0.0089,0.0091,0,0,0,0,0,0,0,-0.0296,-0.0287,-0.0226,-0.0231,-0.0224,-0.0182,-0.0172,-0.0122,-0.007,-0.0128,-0.0123,-0.0115,-0.0003,0.0023,0.0032,0.0109,0.0083,0.0088,0.0091,0.0093,0.023,0.023,0,0,0,0,0,0,-0.0319,-0.0292,-0.023,-0.0223,-0.0259,-0.0181,-0.017,-0.0163,-0.0071,-0.0058,-0.0115,-0.0112,0.0013,0.0026,0.0037,0.0076,0.0089,0.0094,0.0097,0.023,0.023,0.0231,0,0,0,0,0,0,-0.0321,-0.0315,-0.0234,-0.0257,-0.0244,-0.0181,-0.0173,-0.0161,-0.0138,-0.0062,-0.0047,-0.0105,0.0014,0.003,0.008,0.0081,0.0096,0.0101,0.0229,0.023,0.023,0.0152,0,0,0,0,0,0,-0.0324,-0.0316,-0.0321,-0.0259,-0.0244,-0.0211,-0.0173,-0.0159,-0.0134,-0.0128,-0.0048,-0.0035,0.0016,0.0071,0.0085,0.0089,0.0106,0.0229,0.0229,0.023,0.0154,0.015,0.0146,0,0,0,0,0,-0.0327,-0.0339,-0.0322,-0.0315,-0.0252,-0.0212,-0.0201,-0.0152,-0.0134,-0.0129,-0.0072,-0.0037,0.0086,0.0076,0.0092,0.0098,0.0228,0.0229,0.023,0.0156,0.0151,0.0146,0,0,0,0,0,0,-0.0378,-0.0331,-0.0312,-0.0309,-0.0269,-0.0201,-0.0195,-0.0161,-0.011,-0.0106,-0.0033,-0.0015,0.0029,0.0075,0.0062,0.0141,0.0163,0.0167,0.0102,0.0097,0.0093,0.0075,0.011,0,0,0,0,0,-0.0393,-0.039,-0.0336,-0.0335,-0.0319,-0.0258,-0.0237,-0.0205,-0.0152,-0.013,-0.0073,-0.0009,0.0047,0.0078,0.0132,0.0174,0.0223,0.019,0.0186,0.0182,0.0179,0.0256,0.0258,0.0233,0.0233,0.0233,0,0,-0.0412,-0.0388,-0.0385,-0.0346,-0.0311,-0.0295,-0.0245,-0.0221,-0.0202,-0.0123,-0.0083,-0.0025,0.0054,0.0101,0.0125,0.0139,0.0215,0.0183,0.0179,0.0179,0.0257,0.0259,0.0261,0.0234,0.0234,0.0234,0,0,-0.0454,-0.0428,-0.044,-0.0413,-0.0372,-0.033,-0.0329,-0.0266,-0.0232,-0.0189,-0.0124,-0.0066,0.0014,0.0077,0.0118,0.0126,0.0187,0.0142,0.0113,0.0186,0.0188,0.0191,0.025,0.0258,0.0144,0.0144,0.0144,0,-0.0482,-0.0486,-0.0438,-0.044,-0.0424,-0.0353,-0.0358,-0.031,-0.0238,-0.0207,-0.019,-0.0054,0.0005,0.0082,0.0084,0.0117,0.0162,0.012,0.0179,0.0183,0.0187,0.0247,0.0257,0.0141,0.0141,0.0141,0.0142,0,-0.0529,-0.0529,-0.0534,-0.0512,-0.0487,-0.0481,-0.0413,-0.038,-0.0333,-0.0277,-0.0201,-0.0111,-0.0028,0.0002,0.0044,0.0109,0.0132,0.0159,0.0185,0.0185,0.0248,0.026,0.0135,0.0137,0.0138,0.0139,0,0,-0.0594,-0.0575,-0.0575,-0.058,-0.0527,-0.0513,-0.0477,-0.0419,-0.0393,-0.031,-0.0262,-0.016,-0.0103,-0.0052,0.002,0.0085,0.0149,0.0125,0.0131,0.0171,0.0303,0.0342,0.036,0.0185,0.0187,0.0189,0.0332,0,-0.0646,-0.0683,-0.0643,-0.066,-0.0673,-0.0594,-0.0567,-0.0502,-0.0432,-0.0365,-0.025,-0.0182,-0.0123,-0.0085,-0.0009,0.0117,0.0179,0.0107,0.0308,0.0314,0.034,0.0375,0.0318,0.0443,0.0344,0.0346,0.0348,0,-0.0701,-0.0721,-0.0761,-0.0744,-0.0738,-0.0728,-0.067,-0.0635,-0.0514,-0.0458,-0.0356,-0.026,-0.0134,-0.0098,0.0114,0.0065,0.0169,0.026,0.0269,0.0342,0.0377,0.0432,0.047,0.0369,0.0367,0.0366,0.0364,0,-0.0785,-0.0795,-0.0836,-0.0832,-0.08,-0.0791,-0.0763,-0.0669,-0.0635,-0.0512,-0.0465,-0.0303,-0.0217,-0.0057,0.0142,0.0129,0.0371,0.0381,0.0513,0.0516,0.0527,0.0529,0.0512,0.0511,0.0511,0.0511,0.051,0,-0.0858,-0.0884,-0.0883,-0.0905,-0.094,-0.0881,-0.0881,-0.082,-0.0729,-0.0687,-0.0523,-0.0441,-0.0205,-0.0029,0.0137,0.0376,0.0375,0.0518,0.0564,0.0498,0.0495,0.0477,0.0471,0.0516,0.0515,0.0514,0.0513,0,-0.0937,-0.0937,-0.0985,-0.0983,-0.0984,-0.101,-0.0974,-0.0965,-0.0864,-0.0798,-0.0761,-0.0534,-0.0295,-0.005,0.0225,0.0369,0.0589,0.0663,0.0565,0.0597,0.068,0.0669,0.0827,0.083,0.0832,0.0834,0.0836,0,-0.0982,-0.1019,-0.106,-0.1098,-0.11,-0.1124,-0.1133,-0.105,-0.102,-0.0848,-0.081,-0.0569,-0.0372,0.0065,0.0355,0.0667,0.066,0.0778,0.0746,0.0688,0.0717,0.0701,0.0687,0.0726,0.0727,0.0727,0.0728,0,-0.1063,-0.1076,-0.112,-0.1209,-0.1242,-0.1274,-0.1266,-0.1259,-0.1143,-0.1051,-0.0871,-0.07,-0.027,0.0089,0.0489,0.0653,0.0729,0.0799,0.0791,0.0651,0.0604,0.0628,0.0615,0.0732,0.0732,0.0731,0.0731,0.0731,-0.1113,-0.1175,-0.1237,-0.1311,-0.1359,-0.1396,-0.1408,-0.1364,-0.1303,-0.1132,-0.0945,-0.0657,-0.0291,0.0282,0.0573,0.0821,0.0815,0.0866,0.086,0.0854,0.0813,0.0773,0.0924,0.0925,0.0925,0.0926,0.0926,0,-0.1177,-0.1244,-0.1331,-0.1413,-0.1475,-0.1475,-0.1471,-0.1438,-0.1359,-0.1169,-0.0961,-0.0551,-0.0127,0.0242,0.0649,0.0906,0.0864,0.0926,0.0828,0.0822,0.0817,0.077,0.0873,0.0873,0.0874,0.0875,0,0,-0.1214,-0.1315,-0.1364,-0.1485,-0.1541,-0.1587,-0.1581,-0.1495,-0.1349,-0.115,-0.0933,-0.0601,-0.0128,0.0155,0.0481,0.069,0.0678,0.0691,0.0705,0.0543,0.0535,0.0753,0.0672,0,0,0,0,0]}],[{"header":{"parameterUnit":"m.s-1","parameterCategory":2,"la1":30.2991,"la2":30.254,"lo1":-89.0895,"lo2":-89.0444,"dx":0.0017,"dy":0.0017,"nx":28,"ny":28,"refTime":"2023-01-21T15:00:00:Z","depth":"4","parameterNumber":2,"parameterNumberName":"U-component_of_CURRENTS"},"data":[0,0,0,0,0,0,0,0,0,0,0,0,0,0,0,0,0,0,0,0,0,0,0,0,0,0,0,0,0,0,0,0,0,0,0,0,0,0,0,0,0,0,0,0,0,0,0,0,0,0,0,0,0,0,0,0,0,0,-0.1935,-0.1936,0,-0.201,-0.201,-0.2011,-0.2055,-0.2056,-0.2056,-0.2057,-0.2114,-0.2115,-0.2116,0,0,0,0,0,0,0,0,0,0,0,0,0,-0.1825,-0.1826,-0.1935,-0.1936,-0.1937,-0.2009,-0.201,-0.2011,-0.2055,-0.2056,-0.2056,-0.2057,-0.2114,-0.2115,-0.2116,0,0,0,0,0,0,0,0,0,0,0,0,0,-0.1881,-0.1827,-0.1935,-0.197,-0.1974,-0.2009,-0.201,-0.2011,-0.2055,-0.2056,-0.2057,-0.2057,-0.2113,-0.2115,-0.2117,-0.2114,0,0,-0.2122,-0.2122,0,0,0,0,0,0,0,0,-0.1877,-0.1884,-0.1963,-0.1967,-0.1972,-0.2026,-0.1993,-0.2046,-0.2055,-0.2022,-0.2057,-0.2058,-0.2084,-0.2088,-0.2098,-0.2117,-0.2119,-0.2122,-0.2123,-0.2124,-0.2124,0,0,0,0,0,0,0,-0.1874,-0.1881,-0.1962,-0.1965,-0.197,-0.198,-0.1989,-0.2003,-0.2046,-0.2025,-0.2029,-0.2041,-0.2086,-0.2096,-0.2099,-0.212,-0.2122,-0.2123,-0.2124,-0.2125,-0.2224,-0.2226,0,0,0,0,0,0,-0.1869,-0.1878,-0.1959,-0.1964,-0.1928,-0.1982,-0.1991,-0.2006,-0.2046,-0.2054,-0.204,-0.2043,-0.2093,-0.2097,-0.2101,-0.2188,-0.2124,-0.2125,-0.2126,-0.2223,-0.2225,-0.2226,0,0,0,0,0,0,-0.1867,-0.1876,-0.1957,-0.1924,-0.1936,-0.1983,-0.1999,-0.2007,-0.2051,-0.2059,-0.2066,-0.208,-0.2093,-0.2099,-0.2151,-0.2187,-0.2126,-0.2127,-0.2221,-0.2223,-0.2226,-0.2306,0,0,0,0,0,0,-0.1863,-0.1874,-0.19,-0.1924,-0.1938,-0.2004,-0.1999,-0.2008,-0.2056,-0.2061,-0.2095,-0.2099,-0.2094,-0.2148,-0.2152,-0.2189,-0.2129,-0.2219,-0.2222,-0.2225,-0.2301,-0.2311,-0.2319,0,0,0,0,0,-0.1859,-0.1887,-0.19,-0.1911,-0.1966,-0.2006,-0.2014,-0.2047,-0.2058,-0.2087,-0.2113,-0.21,-0.217,-0.2152,-0.2156,-0.2193,-0.2217,-0.2221,-0.2225,-0.2297,-0.2309,-0.2319,0,0,0,0,0,0,-0.1854,-0.1895,-0.191,-0.1951,-0.1989,-0.2015,-0.2049,-0.2067,-0.211,-0.2123,-0.2125,-0.2131,-0.2189,-0.218,-0.2159,-0.223,-0.219,-0.2194,-0.2243,-0.2254,-0.2263,-0.2261,-0.213,0,0,0,0,0,-0.1864,-0.1897,-0.1934,-0.197,-0.1992,-0.2026,-0.2053,-0.2077,-0.211,-0.2131,-0.2155,-0.2178,-0.2201,-0.2221,-0.2239,-0.228,-0.2257,-0.2305,-0.2314,-0.2322,-0.2323,-0.2321,-0.2329,-0.2239,-0.2238,-0.2238,0,0,-0.1872,-0.19,-0.1921,-0.1973,-0.2004,-0.2046,-0.2045,-0.2098,-0.214,-0.2129,-0.2203,-0.2215,-0.222,-0.2269,-0.2293,-0.2271,-0.2337,-0.2326,-0.2333,-0.233,-0.2326,-0.2334,-0.2342,-0.2241,-0.2241,-0.224,0,0,-0.1894,-0.1933,-0.1966,-0.2003,-0.206,-0.2083,-0.2107,-0.2157,-0.2192,-0.2254,-0.2256,-0.2294,-0.2335,-0.2346,-0.2352,-0.242,-0.2385,-0.2429,-0.2474,-0.2473,-0.248,-0.2486,-0.2472,-0.2475,-0.2432,-0.2432,-0.2432,0,-0.1904,-0.1949,-0.1983,-0.2026,-0.2063,-0.2104,-0.2149,-0.2191,-0.2255,-0.2283,-0.2291,-0.2355,-0.2368,-0.241,-0.244,-0.2441,-0.2427,-0.2434,-0.2484,-0.2489,-0.2494,-0.2477,-0.2481,-0.2437,-0.2436,-0.2436,-0.2435,0,-0.1939,-0.1993,-0.2019,-0.2084,-0.2129,-0.2179,-0.2235,-0.229,-0.2334,-0.2364,-0.2432,-0.2451,-0.2481,-0.2498,-0.2494,-0.2539,-0.2515,-0.2495,-0.2454,-0.2508,-0.2487,-0.2489,-0.2443,-0.2441,-0.244,-0.2439,0,0,-0.1909,-0.2021,-0.2033,-0.2077,-0.2167,-0.2201,-0.2283,-0.2352,-0.2401,-0.2463,-0.2515,-0.2566,-0.2573,-0.258,-0.2582,-0.2592,-0.2623,-0.2567,-0.2565,-0.2549,-0.2614,-0.2451,-0.2437,-0.2613,-0.2614,-0.2615,-0.2587,0,-0.1927,-0.2009,-0.2066,-0.2153,-0.2198,-0.227,-0.2337,-0.2408,-0.2468,-0.2532,-0.2561,-0.2611,-0.2605,-0.2626,-0.2639,-0.2629,-0.2632,-0.2631,-0.2568,-0.2566,-0.2411,-0.2435,-0.2617,-0.2589,-0.2589,-0.2589,-0.2589,0,-0.1931,-0.1988,-0.2074,-0.2185,-0.2212,-0.2274,-0.2379,-0.2445,-0.2537,-0.2583,-0.2635,-0.2659,-0.2701,-0.2681,-0.2685,-0.2686,-0.266,-0.2643,-0.2641,-0.2459,-0.2406,-0.2523,-0.2592,-0.2592,-0.2592,-0.2592,-0.2591,0,-0.1868,-0.1991,-0.2059,-0.2099,-0.2229,-0.2285,-0.2354,-0.2457,-0.2514,-0.2612,-0.2652,-0.2703,-0.2724,-0.2716,-0.2692,-0.2696,-0.2673,-0.2665,-0.249,-0.2478,-0.2599,-0.2593,-0.2655,-0.2655,-0.2655,-0.2655,-0.2655,0,-0.1842,-0.19,-0.2042,-0.2076,-0.2158,-0.2258,-0.2346,-0.2424,-0.2529,-0.257,-0.2666,-0.2686,-0.2734,-0.2729,-0.2704,-0.259,-0.2676,-0.2492,-0.2457,-0.2634,-0.2632,-0.26,-0.2594,-0.2654,-0.2654,-0.2654,-0.2655,0,-0.1753,-0.1855,-0.1936,-0.208,-0.2133,-0.2183,-0.2332,-0.2377,-0.2496,-0.2552,-0.2583,-0.2679,-0.2662,-0.2679,-0.2657,-0.2572,-0.2503,-0.244,-0.2625,-0.2602,-0.2311,-0.231,-0.2243,-0.2237,-0.2232,-0.2228,-0.2224,0,-0.1711,-0.1748,-0.1909,-0.1956,-0.2027,-0.2128,-0.2187,-0.2336,-0.2376,-0.2511,-0.2507,-0.256,-0.259,-0.2428,-0.2473,-0.24,-0.237,-0.2322,-0.2322,-0.2294,-0.2268,-0.2275,-0.2281,-0.2216,-0.2215,-0.2213,-0.2212,0,-0.1614,-0.1687,-0.1749,-0.1842,-0.1921,-0.1993,-0.2086,-0.2107,-0.2245,-0.2386,-0.2361,-0.2349,-0.2324,-0.2305,-0.2257,-0.221,-0.2351,-0.2268,-0.2279,-0.2278,-0.226,-0.2241,-0.2253,-0.2194,-0.2197,-0.2198,-0.2199,0,-0.1532,-0.1546,-0.1633,-0.1695,-0.179,-0.1807,-0.1889,-0.1926,-0.1991,-0.2152,-0.2133,-0.2194,-0.2289,-0.2203,-0.2163,-0.2101,-0.2073,-0.2005,-0.2029,-0.2049,-0.1998,-0.1948,-0.1746,0,0,0,0,0,-0.1433,-0.143,-0.1477,-0.1532,-0.1614,-0.1659,-0.1791,-0.1874,-0.2023,-0.1946,-0.2036,-0.2006,-0.196,-0.2008,-0.1898,-0.2069,-0.2075,-0.1934,-0.201,-0.2096,-0.2116,-0.2073,0,0,0,0,0,0,-0.1368,-0.1402,-0.1414,-0.1368,-0.1373,-0.1433,-0.1505,-0.1613,-0.1594,-0.1759,-0.1747,-0.1871,-0.1859,-0.1972,-0.1848,-0.1859,-0.1863,-0.1991,-0.1986,-0.2084,-0.2103,-0.2119,-0.2082,0,0,0,0,0]},{"header":{"parameterUnit":"m.s-1","parameterCategory":2,"la1":30.2991,"la2":30.254,"lo1":-89.0895,"lo2":-89.0444,"dx":0.0017,"dy":0.0017,"nx":28,"ny":28,"refTime":"2023-01-21T15:00:00:Z","depth":"4","parameterNumber":3,"parameterNumberName":"V-component_of_CURRENTS"},"data":[0,0,0,0,0,0,0,0,0,0,0,0,0,0,0,0,0,0,0,0,0,0,0,0,0,0,0,0,0,0,0,0,0,0,0,0,0,0,0,0,0,0,0,0,0,0,0,0,0,0,0,0,0,0,0,0,0,0,-0.0178,-0.0177,0,-0.01,-0.0099,-0.0098,-0.0048,-0.0048,-0.0048,-0.0048,0.0062,0.0065,0.0068,0,0,0,0,0,0,0,0,0,0,0,0,0,-0.0227,-0.0226,-0.0178,-0.0177,-0.0177,-0.01,-0.0099,-0.0098,-0.0048,-0.0048,-0.0048,-0.0048,0.0062,0.0065,0.0068,0,0,0,0,0,0,0,0,0,0,0,0,0,-0.0181,-0.0226,-0.0178,-0.0144,-0.0141,-0.01,-0.0099,-0.0097,-0.0048,-0.0048,-0.0048,-0.0048,0.006,0.0065,0.0069,0.0093,0,0,0.0082,0.0084,0,0,0,0,0,0,0,0,-0.0184,-0.0179,-0.015,-0.0147,-0.0142,-0.0086,-0.0076,-0.0033,-0.0048,-0.0081,-0.0048,-0.0048,0.0014,0.0022,0.004,0.0098,0.0102,0.0082,0.0085,0.0087,0.0088,0,0,0,0,0,0,0,-0.0187,-0.0182,-0.0145,-0.0149,-0.0145,-0.0113,-0.0107,-0.0067,-0.0033,-0.0078,-0.0075,-0.007,0.0017,0.0035,0.0043,0.0104,0.0082,0.0086,0.0089,0.009,0.0202,0.0202,0,0,0,0,0,0,-0.0204,-0.0185,-0.0147,-0.0143,-0.0166,-0.0113,-0.0106,-0.0102,-0.0034,-0.0024,-0.007,-0.0068,0.0028,0.0038,0.0047,0.0076,0.0087,0.0091,0.0093,0.0201,0.0202,0.0202,0,0,0,0,0,0,-0.0206,-0.0202,-0.0151,-0.0164,-0.0155,-0.0113,-0.0109,-0.0101,-0.0086,-0.0028,-0.0017,-0.0064,0.0028,0.0041,0.008,0.0081,0.0093,0.0096,0.0201,0.0202,0.0202,0.0136,0,0,0,0,0,0,-0.0207,-0.0203,-0.021,-0.0165,-0.0155,-0.0136,-0.0109,-0.0099,-0.0084,-0.008,-0.002,-0.0009,0.003,0.0073,0.0084,0.0087,0.01,0.0201,0.0201,0.0202,0.0138,0.0135,0.0132,0,0,0,0,0,-0.0209,-0.022,-0.021,-0.0206,-0.0165,-0.0137,-0.0129,-0.0096,-0.0084,-0.0081,-0.0038,-0.0011,0.0086,0.0077,0.0089,0.0093,0.02,0.0201,0.0202,0.0139,0.0135,0.0132,0,0,0,0,0,0,-0.0244,-0.0215,-0.0203,-0.0205,-0.0178,-0.0129,-0.0127,-0.0103,-0.0066,-0.0064,-0.0007,0.0006,0.0041,0.0078,0.0066,0.013,0.0148,0.0152,0.0096,0.0093,0.009,0.0071,0.0103,0,0,0,0,0,-0.0257,-0.0258,-0.0221,-0.0224,-0.0214,-0.0172,-0.0158,-0.0136,-0.0097,-0.0081,-0.0037,0.0012,0.0056,0.0081,0.0123,0.0157,0.0193,0.017,0.0166,0.0163,0.0158,0.0216,0.0217,0.0205,0.0205,0.0205,0,0,-0.0272,-0.0257,-0.0257,-0.0232,-0.0209,-0.02,-0.0163,-0.0148,-0.0136,-0.0074,-0.0047,-0.0001,0.0062,0.0098,0.0118,0.0129,0.0186,0.0164,0.0161,0.0158,0.0217,0.0218,0.0219,0.0206,0.0206,0.0206,0,0,-0.0303,-0.0289,-0.03,-0.0282,-0.0257,-0.0228,-0.0228,-0.0183,-0.016,-0.0129,-0.0079,-0.0033,0.003,0.0079,0.0111,0.0118,0.0164,0.0132,0.0105,0.0161,0.0162,0.0163,0.0205,0.0211,0.0134,0.0134,0.0134,0,-0.0325,-0.0332,-0.0299,-0.0303,-0.0296,-0.0245,-0.0253,-0.0219,-0.0166,-0.0147,-0.0132,-0.0028,0.0022,0.0079,0.0082,0.011,0.0143,0.011,0.0155,0.0157,0.016,0.0203,0.021,0.0131,0.0132,0.0132,0.0132,0,-0.0359,-0.0366,-0.0371,-0.036,-0.0345,-0.0345,-0.0298,-0.0277,-0.0245,-0.0205,-0.015,-0.0076,-0.0015,0.0012,0.0049,0.0096,0.0114,0.0139,0.0158,0.0157,0.0202,0.0211,0.0127,0.0128,0.0129,0.013,0,0,-0.0403,-0.04,-0.0402,-0.0413,-0.0379,-0.0373,-0.0352,-0.0317,-0.0305,-0.0241,-0.0213,-0.0127,-0.0084,-0.0044,0.0017,0.007,0.0117,0.0105,0.011,0.0134,0.023,0.0214,0.0222,0.0147,0.0149,0.015,0.0251,0,-0.0442,-0.0478,-0.0454,-0.0479,-0.0494,-0.0443,-0.043,-0.0388,-0.0341,-0.0299,-0.0208,-0.016,-0.0104,-0.0076,-0.0014,0.009,0.0137,0.0086,0.0239,0.0243,0.0219,0.0231,0.0154,0.0258,0.026,0.0262,0.0263,0,-0.048,-0.0504,-0.0545,-0.0551,-0.0551,-0.0553,-0.0527,-0.0507,-0.0427,-0.0387,-0.0313,-0.0239,-0.014,-0.0103,0.0067,0.0031,0.0117,0.0194,0.02,0.0213,0.0242,0.0265,0.0279,0.0278,0.0276,0.0275,0.0274,0,-0.0537,-0.0562,-0.0604,-0.0607,-0.0602,-0.0608,-0.0599,-0.054,-0.0524,-0.0442,-0.0413,-0.0287,-0.0219,-0.0091,0.0077,0.0071,0.0259,0.0273,0.0338,0.0338,0.035,0.0348,0.0376,0.0375,0.0375,0.0375,0.0375,0,-0.0583,-0.0616,-0.0642,-0.0665,-0.0712,-0.068,-0.0703,-0.0665,-0.0612,-0.0591,-0.0467,-0.0409,-0.0213,-0.0075,0.0062,0.0232,0.0253,0.0333,0.0365,0.032,0.0313,0.0356,0.0353,0.0379,0.0378,0.0377,0.0376,0,-0.0628,-0.0645,-0.0702,-0.0729,-0.0742,-0.0777,-0.0784,-0.0789,-0.0726,-0.0691,-0.0666,-0.0491,-0.0308,-0.011,0.0113,0.0209,0.0372,0.0422,0.0355,0.0383,0.0414,0.0406,0.0495,0.0495,0.0495,0.0496,0.0496,0,-0.0651,-0.0688,-0.0761,-0.0806,-0.0824,-0.0871,-0.0895,-0.0855,-0.0841,-0.0735,-0.0706,-0.0531,-0.04,-0.0084,0.0111,0.0368,0.0398,0.0468,0.044,0.0404,0.0427,0.0419,0.0411,0.0496,0.0496,0.0496,0.0496,0,-0.0695,-0.0727,-0.0775,-0.0876,-0.0928,-0.0979,-0.0997,-0.0993,-0.0929,-0.088,-0.0726,-0.0551,-0.0341,-0.0091,0.0114,0.0295,0.0416,0.0471,0.0471,0.0446,0.0407,0.0428,0.042,0.0497,0.0497,0.0497,0.0497,0,-0.0722,-0.0775,-0.0848,-0.0927,-0.1005,-0.1049,-0.1059,-0.1014,-0.0984,-0.0844,-0.0799,-0.0559,-0.0411,-0.0129,0.0061,0.0239,0.0272,0.0307,0.0316,0.0317,0.0234,0.0157,0.0197,0,0,0,0,0,-0.0743,-0.0803,-0.089,-0.0973,-0.1051,-0.1088,-0.1102,-0.1089,-0.1025,-0.0926,-0.0855,-0.0655,-0.0349,-0.0198,-0.0023,0.0042,0.0282,0.0247,0.0322,0.0502,0.0501,0.0432,0,0,0,0,0,0,-0.0759,-0.0846,-0.0892,-0.0989,-0.1049,-0.1119,-0.1131,-0.1093,-0.101,-0.0924,-0.0745,-0.0641,-0.0329,-0.045,-0.0028,0.0028,0.0091,0.0403,0.0406,0.0503,0.0502,0.0501,0.043,0,0,0,0,0]}]]